User: anonymous   Login
Location: Newark
(23.1300°N, 73.6109°E)
Time: 02:41:18
(UTC+00:00)
Language:

NOAA 18 - Orbit

View from above orbital plane
View from above orbital plane
View from above satellite
View from above satellite

Ground track
Ground track

The orbit data is extracted from the following two-line orbital elements,

1 28654U 05018A   20192.75098502  .00000059  00000-0  56303-4 0  9994
2 28654  99.0421 249.3961 0014716 161.7394 198.4309 14.12524095780299
Epoch (UTC): 10 July 2020 18:01:25
Eccentricity: 0.0014716
inclination: 99.0421°
perigee height: 840 km
apogee height: 861 km
right ascension of ascending node: 249.3961°
argument of perigee: 161.7394°
revolutions per day: 14.12524095
mean anomaly at epoch: 198.4309°
orbit number at epoch: 78029

The dashed part of the orbit path shows where the satellite is in the earth's shadow,  

DLR